NOAA 16 DEB, 41502

Orbit data source: Space-Track

NOAA 16 DEB, 41502 is space debris in SSO originally from a launch on Thu, 21 Sep 2000 UTC launched from the Air Force Western Test Range (AFWTR). Debris objects in space refer to the collection of defunct objects orbiting the Earth. Examples of debris include non-operational satellites, rocket bodies, and fragments generated from explosions, collisions, or faulty payload assembly.

Loading next visibility...
Identifier
41502, 2000-055MA
Orbit
SSO
Country
Flag of USUS
Related business
Manufacturer
Unknown
Mission
Spacecraft
Bus & Motor
Unknown
Mass
Unknown
Launch date (UTC)
2000-09-21 (25 years ago)
Launch vehicle
Unknown
Launch site
Air Force Western Test Range (AFWTR)
Object type
Payload
Rocket body
Debris
Shape & HBR
Unknown shape, 0.1 m
Radar Cross Section
Small (<0.1 m²)

Expand to show TLE details & history
Last TLE update: 20 hours ago

TLE from 20 hours ago
0 NOAA 16 DEB
1 41502U 00055MA  25296.37681411  .00003913  00000-0  17713-2 0  9994
2 41502  98.6667 346.1107 0010841  96.7463 263.4949 14.22518197497644
Epoch: 2025-10-23T09:02Z
TLE epoch observation values (Epoch: 2025-10-23T09:02:36.739Z)
Latitude
-0°
Longitude
178.42067°
Altitude
820.661 km
Speed
7.442 km/s
True Right ascension
23h 04m 26s
True Declination
0° 00' 00"
Sunlit
Object was in full shadow at epoch
Visualization orbit readout
Latitude
Unknown
Longitude
Unknown
Altitude
Unknown
Speed
Unknown
Apparent Right ascension
Unknown
Apparent Declination
Unknown
Sunlit
N/A
Visualization observer readout
Local Sidereal Time
00:21:00
Azimuth
Unknown
Elevation
Unknown
Doppler factor
Unknown
Orbital elements
Apogee altitude
821.799 km
Perigee altitude
806.205 km
Semi-major axis
7,192.139 km
Eccentricity
0.00108
Inclination
98.6667°
RAAN
346.1107°
Arg. of periapsis
96.7463°
True anomaly
263.37149°
Mean anomaly
263.4949°
Eccentric anomaly
263.43319°
Mean motion
3.55841 °/min
Orbital period
101.17 mins
BSTAR
0.0017713
Loading maneuver chart data...
Computing Atmospheric mass density...
Loading historical data...
Loading historical data...
Loading historical data...
Loading historical data...
Loading historical data...
Loading historical data...
Loading historical data...

Documentation

Showing up to 5 results
|